Погода в Архиповке

Россия / Ивановская область     56°39′46″N   41°15′21″E
темп.,
°C
ветер,
м/с
пор.,
м/с
влажн.,
%
обл.,
%
осадки,
мм/ч
давл.,
гПа
погр.,
м
19 апреля, пн
пн1900:00+6в51081100 0.0 1026688
03:00+3всв41084100 0.0 1027478
06:00+2всв51179100 0.0 1027480
09:00+4всв5963100 0.0 1027632
12:00+6в6854100 0.0 10271022
15:00+8в6844100 0.0 10271501
18:00+7в5943100 0.0 10271290
21:00+5всв4115199 0.0 1028733
20 апреля, вт
вт2000:00+2всв412617 0.0 1028495
03:00+1в412649 0.0 1027463
06:000в41265100 0.0 1027462
09:00+5в51151100 0.0 1026757
12:00+9вюв61044100 0.0 10251379
15:00+11вюв61143100 0.0 10231603
18:00+9вюв5114691 0.0 10211564
21:00+7в61348100 0.0 10201173
21 апреля, ср
ср2100:00+6в61448100 0.0 10171002
03:00+3в71666100 1.1 10131072
06:00+1вюв71795100 4.0 1009936
09:00+3вюв81791100 6.1 1006928
12:00+5юв81790100 0.6 10041402
15:00+6ю71380100 0.9 10061267
18:00+4ю61383100 0.1 10091239
21:00+4ююз61184100 0.2 10121168
22 апреля, чт
чт2200:00+4ююз41085100 0.0 1013861
03:00+4ю2786100 0.0 1014232
06:00+4ю3889100 0.0 1015291
09:00+8ю486989 0.0 1016784
12:00+11ююз585593 0.3 10161671
15:00+10ююз476698 0.6 10161172
18:00+10ююз376899 0.0 1017612
21:00+6ю378427 0.0 1018134
23 апреля, пт
пт2300:00+5ю39895 0.0 1019171
03:00+4ююв39905 0.0 1019173
06:00+5ююв38925 0.0 1019193
09:00+12ю48715 0.0 1019550
12:00+16ююз585212 0.0 10181528
15:00+18ююз574475 1.2 10172354
18:00+14ю396148 0.0 1017365
21:00+11ююв4127434 0.0 1017277